timestamp,surface_pressure_avg,surface_temp_avg,battery_voltage,lat,long
2017-10-27 00:00:00+00:00,238.8848,10.19,12.97,47.84626,-54.09684
2017-10-27 00:10:00+00:00,238.9231,10.19,12.97,47.84626,-54.09684
2017-10-27 00:20:00+00:00,235.8097,10.17,12.97,47.84626,-54.09684
2017-10-27 00:30:00+00:00,239.7781,10.16,12.97,47.84626,-54.09684
2017-10-27 00:40:00+00:00,245.2631,10.17,13.05,47.84626,-54.09684
2017-10-27 00:50:00+00:00,243.5881,10.17,13.05,47.84626,-54.09684
2017-10-27 01:00:00+00:00,243.7798,10.17,12.97,47.84626,-54.09684
2017-10-27 01:10:00+00:00,253.3647,10.14,12.89,47.84626,-54.09684
2017-10-27 01:20:00+00:00,257.8148,10.16,12.97,47.84626,-54.09684
2017-10-27 01:30:00+00:00,258.8465,10.16,12.97,47.84626,-54.09684
2017-10-27 01:40:00+00:00,264.2314,10.14,12.97,47.84626,-54.09684
2017-10-27 01:50:00+00:00,271.763,10.14,12.97,47.84626,-54.09684
2017-10-27 02:00:00+00:00,273.5182,10.17,12.97,47.84626,-54.09684
2017-10-27 02:10:00+00:00,277.7531,10.16,12.89,47.84626,-54.09684
2017-10-27 02:20:00+00:00,284.0331,10.13,12.97,47.84626,-54.09684
2017-10-27 02:30:00+00:00,285.9832,10.1,12.97,47.84626,-54.09684
2017-10-27 02:40:00+00:00,285.213,10.0,12.97,47.84626,-54.09684
2017-10-27 02:50:00+00:00,290.7764,10.0,12.97,47.84626,-54.09684
2017-10-27 03:00:00+00:00,292.1097,9.99,12.89,47.84626,-54.09684
2017-10-27 03:10:00+00:00,289.8913,10.0,12.81,47.84626,-54.09684
2017-10-27 03:20:00+00:00,291.9147,10.06,12.97,47.84626,-54.09684
2017-10-27 03:30:00+00:00,295.8097,10.1,12.97,47.84626,-54.09684
2017-10-27 03:40:00+00:00,292.6663,10.1,12.97,47.84626,-54.09684
2017-10-27 03:50:00+00:00,290.358,10.1,12.97,47.84626,-54.09684
2017-10-27 04:00:00+00:00,297.3397,10.12,12.89,47.84626,-54.09684
2017-10-27 04:10:00+00:00,303.0197,10.18,12.81,47.84626,-54.09684
2017-10-27 04:20:00+00:00,299.2764,10.2,12.89,47.84626,-54.09684
2017-10-27 04:30:00+00:00,297.8047,10.2,12.89,47.84626,-54.09684
2017-10-27 04:40:00+00:00,305.5163,10.19,12.97,47.84626,-54.09684
2017-10-27 04:50:00+00:00,308.0746,10.19,12.97,47.84626,-54.09684
2017-10-27 05:00:00+00:00,303.9464,10.2,12.89,47.84626,-54.09684
2017-10-27 05:10:00+00:00,302.4998,10.2,12.81,47.84626,-54.09684
2017-10-27 05:20:00+00:00,304.1131,10.19,12.89,47.84626,-54.09684
2017-10-27 05:30:00+00:00,303.5098,10.2,12.89,47.84626,-54.09684
2017-10-27 05:40:00+00:00,301.4647,10.19,12.89,47.84626,-54.09684
2017-10-27 05:50:00+00:00,301.2112,10.18,12.89,47.84626,-54.09684
2017-10-27 06:00:00+00:00,297.678,10.19,12.89,47.84626,-54.09684
2017-10-27 06:10:00+00:00,291.723,10.2,12.81,47.84626,-54.09684
2017-10-27 06:20:00+00:00,285.3163,10.2,12.89,47.84626,-54.09684
2017-10-27 06:30:00+00:00,283.563,10.2,12.89,47.84626,-54.09684
2017-10-27 06:40:00+00:00,278.138,10.2,12.89,47.84626,-54.09684
2017-10-27 06:50:00+00:00,270.5981,10.2,12.89,47.84626,-54.09684
2017-10-27 07:00:00+00:00,265.6014,10.2,12.89,47.84626,-54.09684
2017-10-27 07:10:00+00:00,262.1131,10.2,12.81,47.84626,-54.09684
2017-10-27 07:20:00+00:00,254.7131,10.2,12.89,47.84626,-54.09684
2017-10-27 07:30:00+00:00,249.5197,10.2,12.89,47.84626,-54.09684
2017-10-27 07:40:00+00:00,248.108,10.2,12.89,47.84626,-54.09684
2017-10-27 07:50:00+00:00,244.0781,10.2,12.89,47.84626,-54.09684
2017-10-27 08:00:00+00:00,236.6064,10.2,12.81,47.84626,-54.09684
2017-10-27 08:10:00+00:00,234.1047,10.2,12.81,47.84626,-54.09684
2017-10-27 08:20:00+00:00,234.673,10.2,12.89,47.84626,-54.09684
2017-10-27 08:30:00+00:00,232.9598,10.2,12.89,47.84626,-54.09684
2017-10-27 08:40:00+00:00,228.0398,10.1,12.89,47.84626,-54.09684
2017-10-27 08:50:00+00:00,224.9415,10.03,12.89,47.84626,-54.09684
2017-10-27 09:00:00+00:00,224.8981,10.1,12.81,47.84626,-54.09684
2017-10-27 09:10:00+00:00,226.3949,10.1,12.81,47.84626,-54.09684
2017-10-27 09:20:00+00:00,227.8681,10.0,12.89,47.84626,-54.09684
2017-10-27 09:30:00+00:00,225.4214,10.0,12.89,47.84626,-54.09684
2017-10-27 09:40:00+00:00,219.8231,10.0,12.89,47.84626,-54.09684
2017-10-27 09:50:00+00:00,221.0798,10.0,12.89,47.84626,-54.09684
2017-10-27 10:00:00+00:00,228.0814,10.0,12.81,47.84626,-54.09684
2017-10-27 10:10:00+00:00,226.7831,10.0,12.81,47.84626,-54.09684
2017-10-27 10:20:00+00:00,223.4248,10.0,12.89,47.84626,-54.09684
2017-10-27 10:30:00+00:00,228.8631,10.0,12.89,47.84626,-54.09684
2017-10-27 10:40:00+00:00,233.3914,10.11,12.89,47.84626,-54.09684
2017-10-27 10:50:00+00:00,231.1896,10.09,12.89,47.84626,-54.09684
2017-10-27 11:00:00+00:00,234.0797,10.07,12.81,47.84626,-54.09684
2017-10-27 11:10:00+00:00,240.5181,10.13,12.81,47.84626,-54.09684
2017-10-27 11:20:00+00:00,239.7231,10.19,12.89,47.84626,-54.09684
2017-10-27 11:30:00+00:00,237.2447,10.1,12.89,47.84626,-54.09684
2017-10-27 11:40:00+00:00,242.6681,10.1,12.89,47.84626,-54.09684
2017-10-27 11:50:00+00:00,249.5914,10.16,12.89,47.84626,-54.09684
2017-10-27 12:00:00+00:00,246.9815,10.18,12.89,47.84626,-54.09684
2017-10-27 12:10:00+00:00,244.6098,10.14,12.81,47.84626,-54.09684
2017-10-27 12:20:00+00:00,252.8781,10.1,12.89,47.84626,-54.09684
2017-10-27 12:30:00+00:00,261.3664,10.14,12.97,47.84626,-54.09684
2017-10-27 12:40:00+00:00,265.7081,10.18,13.29,47.84626,-54.09684
2017-10-27 12:50:00+00:00,269.0381,10.19,13.6,47.84626,-54.09684
2017-10-27 13:00:00+00:00,271.6014,10.2,13.53,47.84626,-54.09684
2017-10-27 13:10:00+00:00,272.2148,10.2,13.44,47.84626,-54.09684
2017-10-27 13:20:00+00:00,274.5147,10.19,13.68,47.84626,-54.09684
2017-10-27 13:30:00+00:00,280.0847,10.19,13.84,47.84626,-54.09684
2017-10-27 13:40:00+00:00,281.1964,10.2,13.84,47.84626,-54.09684
2017-10-27 13:50:00+00:00,280.7931,10.2,13.84,47.84626,-54.09684
2017-10-27 14:00:00+00:00,285.9431,10.19,13.6,47.84626,-54.09684
2017-10-27 14:10:00+00:00,290.7697,10.2,13.37,47.84626,-54.09684
2017-10-27 14:20:00+00:00,292.3198,10.2,13.44,47.84626,-54.09684
2017-10-27 14:30:00+00:00,296.933,10.2,13.68,47.84626,-54.09684
2017-10-27 14:40:00+00:00,305.3713,10.2,13.92,47.84626,-54.09684
2017-10-27 14:50:00+00:00,306.478,10.2,13.92,47.84626,-54.09684
2017-10-27 15:00:00+00:00,304.3713,10.2,13.84,47.84626,-54.09684
2017-10-27 15:10:00+00:00,309.7796,10.2,13.84,47.84626,-54.09684
2017-10-27 15:20:00+00:00,311.0013,10.2,14.08,47.84626,-54.09684
2017-10-27 15:30:00+00:00,309.7697,10.2,13.6,47.84626,-54.09684
2017-10-27 15:40:00+00:00,312.898,10.2,13.44,47.84626,-54.09684
2017-10-27 15:50:00+00:00,319.4913,10.2,13.6,47.84626,-54.09684
2017-10-27 16:00:00+00:00,318.9214,10.2,13.92,47.84626,-54.09684
2017-10-27 16:10:00+00:00,318.0614,10.2,13.53,47.84626,-54.09684
2017-10-27 16:20:00+00:00,324.7763,10.2,13.84,47.84626,-54.09684
2017-10-27 16:30:00+00:00,328.293,10.2,13.6,47.84626,-54.09684
2017-10-27 16:40:00+00:00,324.678,10.2,13.44,47.84626,-54.09684
2017-10-27 16:50:00+00:00,328.028,10.21,13.6,47.84626,-54.09684
2017-10-27 17:00:00+00:00,332.3813,10.21,13.44,47.84626,-54.09684
2017-10-27 17:10:00+00:00,329.8864,10.24,14.16,47.84626,-54.09684
2017-10-27 17:20:00+00:00,327.778,10.29,13.53,47.84626,-54.09684
2017-10-27 17:30:00+00:00,332.4314,10.24,13.44,47.84626,-54.09684
2017-10-27 17:40:00+00:00,333.538,10.27,13.44,47.84626,-54.09684
2017-10-27 17:50:00+00:00,327.4813,10.28,13.44,47.84626,-54.09684
2017-10-27 18:00:00+00:00,324.678,10.29,13.53,47.84626,-54.09684
2017-10-27 18:10:00+00:00,323.1597,10.28,13.44,47.84626,-54.09684
2017-10-27 18:20:00+00:00,317.7246,10.3,14.08,47.84626,-54.09684
2017-10-27 18:30:00+00:00,313.4464,10.3,14.0,47.84626,-54.09684
2017-10-27 18:40:00+00:00,313.1296,10.3,13.92,47.84626,-54.09684
2017-10-27 18:50:00+00:00,311.938,10.3,13.84,47.84626,-54.09684
2017-10-27 19:00:00+00:00,303.3847,10.3,13.68,47.84626,-54.09684
2017-10-27 19:10:00+00:00,295.7514,10.3,13.53,47.84626,-54.09684
2017-10-27 19:20:00+00:00,294.8047,10.3,13.53,47.84626,-54.09684
2017-10-27 19:30:00+00:00,291.2763,10.3,13.44,47.84626,-54.09684
2017-10-27 19:40:00+00:00,281.6114,10.3,13.37,47.84626,-54.09684
2017-10-27 19:50:00+00:00,275.6381,10.3,13.37,47.84626,-54.09684
2017-10-27 20:00:00+00:00,273.563,10.3,13.29,47.84626,-54.09684
2017-10-27 20:10:00+00:00,265.2831,10.3,13.13,47.84626,-54.09684
2017-10-27 20:20:00+00:00,257.183,10.3,13.21,47.84626,-54.09684
2017-10-27 20:30:00+00:00,252.7114,10.3,13.21,47.84626,-54.09684
2017-10-27 20:40:00+00:00,251.3897,10.3,13.21,47.84626,-54.09684
2017-10-27 20:50:00+00:00,249.5081,10.3,13.21,47.84626,-54.09684
2017-10-27 21:00:00+00:00,244.4981,10.3,13.13,47.84626,-54.09684
2017-10-27 21:10:00+00:00,239.8698,10.3,13.05,47.84626,-54.09684
2017-10-27 21:20:00+00:00,238.9181,10.3,13.13,47.84626,-54.09684
2017-10-27 21:30:00+00:00,239.0447,10.3,13.13,47.84626,-54.09684
2017-10-27 21:40:00+00:00,238.3415,10.3,13.13,47.84626,-54.09684
2017-10-27 21:50:00+00:00,236.0197,10.3,13.13,47.84626,-54.09684
2017-10-27 22:00:00+00:00,233.7397,10.3,13.05,47.84626,-54.09684
2017-10-27 22:10:00+00:00,233.8831,10.3,13.05,47.84626,-54.09684
2017-10-27 22:20:00+00:00,235.6647,10.3,13.05,47.84626,-54.09684
2017-10-27 22:30:00+00:00,238.5614,10.3,13.05,47.84626,-54.09684
2017-10-27 22:40:00+00:00,242.5214,10.3,13.05,47.84626,-54.09684
2017-10-27 22:50:00+00:00,243.3998,10.3,13.13,47.84626,-54.09684
2017-10-27 23:00:00+00:00,241.0114,10.3,13.05,47.84626,-54.09684
2017-10-27 23:10:00+00:00,245.2981,10.3,12.97,47.84626,-54.09684
2017-10-27 23:20:00+00:00,250.3148,10.3,13.05,47.84626,-54.09684
2017-10-27 23:30:00+00:00,249.0814,10.3,13.05,47.84626,-54.09684
2017-10-27 23:40:00+00:00,249.3081,10.34,13.05,47.84626,-54.09684
2017-10-27 23:50:00+00:00,252.1115,10.37,13.05,47.84626,-54.09684
